Regional Weather Roundup
Issued by NWS Jackson, KY

Home | Current Version | Previous Version | Graphics & Text | Print | Product List | Glossary On
Versions: 1 2 3 4 5 6 7 8 9 10 11 12 13 14 15 16 17 18 19 20 21 22 23 24 25 26 27 28 29 30 31 32 33 34 35 36 37 38 39 40 41 42 43 44 45 46 47 48 49 50
000
ASUS43 KJKL 242110
RWRJKL

EAST KENTUCKY HOURLY WEATHER ROUNDUP
NATIONAL WEATHER SERVICE JACKSON KY
500 PM EDT FRI APR 24 2015

NOTE: "FAIR" INDICATES FEW OR NO CLOUDS BELOW 12,000 FEET WITH
NO SIGNIFICANT WEATHER AND/OR OBSTRUCTIONS TO VISIBILITY.

* THESE REPORTS ARE NOT UNDER NWS QUALITY CONTROL AND MAY NOT
  REPORT WEATHER SUCH AS PRECIPITATION AND FOG.

KYZ079-080-083-085-087-088-110-112-115-119-120-242200
...EASTERN KENTUCKY...

CITY           SKY/WX    TMP DP  RH WIND       PRES   REMARKS
JACKSON        MOSUNNY   63  20  19 VRB3      30.01F
LONDON         MOSUNNY   65  17  15 CALM      30.00F
SOMERSET*      PTSUNNY   63  27  25 NW3       30.01F
MONTICELLO*    PTSUNNY   68  30  24 VRB3      30.02F
MIDDLESBORO*   MOSUNNY   68  26  20 NE5       29.99F
HARLAN APT*    PTCLDY    68  16  13 S3        29.99F
HAZARD APT*    CLEAR     63  19  19 CALM      30.01F
BLACK MTN*       N/A     57  21  24 NE2         N/A
PIKEVILLE APT* SUNNY     59  23  25 N7        30.01F
BIG SANDY*     MOCLDY    61  22  22 W3        30.02F
MOREHEAD APT*  MOCLDY    61  19  20 VRB5      30.03F
$$

KYZ035-036-041-042-044-050-067-078-099-242200
...CENTRAL KENTUCKY...

CITY           SKY/WX    TMP DP  RH WIND       PRES   REMARKS
MT STERLING*   PTSUNNY   59  28  31 N3        30.03F
FLEMING/MASON* SUNNY     57  27  30 CALM      30.03F
DANVILLE*      PTSUNNY   59  30  33 NE3       30.01F
RICHMOND*      PTSUNNY   61  25  25 NE3       30.00F
LEXINGTON      PTSUNNY   60  27  28 S6        30.01F
FRANKFORT      PTSUNNY   60  29  30 SE7       29.99F
$$

KYZ091>093-OHZ055-061-077-WVZ005-015-034-035-042-242200
...SOUTHERN OHIO/WEST VIRGINIA...

CITY           SKY/WX    TMP DP  RH WIND       PRES   REMARKS
COVINGTON      CLOUDY    60  27  28 VRB6      29.99F
COLUMBUS       PTSUNNY   58  23  26 NW3       30.02F
DAYTON         CLOUDY    59  24  26 SW6       30.00F
WILMINGTON     PTSUNNY   57  25  29 VRB5      30.01F
HUNTINGTON     PTSUNNY   60  21  22 VRB5      30.02F
CHARLESTON     PTSUNNY   59  17  19 VRB3      30.04F
PINEVILLE*     PTSUNNY   62  20  20 MISG      30.06F
BECKLEY        PTSUNNY   56  15  20 NW10      30.02S
BLUEFIELD      PTSUNNY   60  11  14 W13       30.02S
$$

VAZ002-007-008-TNZ017-027-036-066-071-242200
...SOUTHWEST VIRGINIA/EAST TENNESSEE...

CITY           SKY/WX    TMP DP  RH WIND       PRES   REMARKS
WISE*          MOSUNNY   64  12  13 NW3       30.02F
JONESVILLE*    PTCLDY    66  23  19 W5        30.02F
ABINGDON*      MOSUNNY   65  21  19 W7        30.00F
BRISTOL        PTSUNNY   64  21  19 VRB5      30.01F
KNOXVILLE      CLOUDY    65  28  24 VRB3      29.98F
OAK RIDGE      CLOUDY    67  27  22 VRB3      30.00F
CROSSVILLE     CLOUDY    65  21  18 W3        30.01F
NASHVILLE      CLOUDY    67  30  25 SE8       29.98F
$$

...KEY TO REMARKS...
VSB - VISIBILITY IN MILES
WCI - WIND CHILL INDEX
HX  - HEAT INDEX

$$



USA.gov is the U.S. government's official web portal to all federal, state and local government web resources and services.